971 
ASUS46 KSEW 261210
RWRWA 

WASHINGTON REGIONAL WEATHER ROUNDUP
NATIONAL WEATHER SERVICE SEATTLE WA
500 AM PDT THU MAY 26 2016

NOTE:"FAIR" INDICATES FEW OR NO CLOUDS BELOW 12,000 FEET WITH NO 
SIGNIFICANT WEATHER AND/OR OBSTRUCTIONS TO VISIBILITY.

WAZ505-507>509-261300-
SEATTLE, TACOMA, EVERETT, AND VICINITY
  
CITY           SKY/WX    TMP DP  RH WIND       PRES   REMARKS
EVERETT        CLOUDY    50  43  77 SW3       30.19S                  
6HR MIN TEMP:  50; 6HR MAX TEMP:  55;                                

BOEING FIELD   CLOUDY    53  44  71 SE9       30.19F                  
6HR MIN TEMP:  53; 6HR MAX TEMP:  55;                                

RENTON         CLOUDY    53  43  68 SE5       30.19F                  
6HR MIN TEMP:  52; 6HR MAX TEMP:  57;                                

SEATAC AIRPORT CLOUDY    52  42  69 S13       30.19F                  
6HR MIN TEMP:  51; 6HR MAX TEMP:  54; 6HR PCP: TRACE;                

JBLM-MCCHORD   CLOUDY    51  44  78 S8        30.19F                  
6HR MIN TEMP:  47; 6HR MAX TEMP:  54;                                

PUYALLUP       CLOUDY    52  43  71 VRB5      30.20S                  
BREMERTON      CLOUDY    50  45  81 CALM      30.21R                  
6HR MIN TEMP:  48; 6HR MAX TEMP:  52;                                

JBLM-FT LEWIS  CLOUDY    48  44  84 SE9       30.19F                  
6HR MIN TEMP:  48; 6HR MAX TEMP:  53;                                

TACOMA NARROWS CLOUDY    50  43  77 S9        30.19S                  
6HR MIN TEMP:  50; 6HR MAX TEMP:  53;                                

$$
 
WAZ001-503-506-510-514-515-261300-
NORTH INTERIOR
  
CITY           SKY/WX    TMP DP  RH WIND       PRES   REMARKS
BELLINGHAM     CLOUDY    54  46  74 S10       30.15F                  
6HR MIN TEMP:  54; 6HR MAX TEMP:  57; 6HR PCP: TRACE;                

FRIDAY HARBOR  PTCLDY    49  46  90 SW7       30.16F                  
6HR MIN TEMP:  48; 6HR MAX TEMP:  52;                                

EASTSOUND      CLOUDY    52  46  82 S8G16     30.13S                  
PORT ANGELES   PTCLDY    43  40  89 SW5       30.17F                  
6HR MIN TEMP:  43; 6HR MAX TEMP:  51;                                

EDIZ HOOK      FAIR      50  44  78 SW5       30.17F                  
6HR MIN TEMP:  50; 6HR MAX TEMP:  54;                                

PORT TOWNSEND  CLOUDY    54  46  76 E5        30.19S                  
NAS WHIDBEY    MOCLDY    54  45  71 S6        30.22S                  
6HR MIN TEMP:  54; 6HR MAX TEMP:  55;                                

ARLINGTON      CLOUDY    54  39  58 S3        30.21S                  
6HR MIN TEMP:  52; 6HR MAX TEMP:  55;                                

BURLINGTON     CLOUDY    52  46  82 CALM      30.19S                  
$$
 
WAZ020-022-039-040-504-511-512-261300-
SOUTHWEST INTERIOR
  
CITY           SKY/WX    TMP DP  RH WIND       PRES   REMARKS
SHELTON        CLOUDY    49  44  83 W7        30.16S                  
6HR MIN TEMP:  49; 6HR MAX TEMP:  52;                                

OLYMPIA        CLOUDY    48  43  82 S7        30.20S                  
6HR MIN TEMP:  48; 6HR MAX TEMP:  50;                                

CHEHALIS       CLOUDY    52  46  82 SW3       30.22S                  
KELSO          CLOUDY    52  43  71 CALM      30.26S                  
6HR MIN TEMP:  52; 6HR MAX TEMP:  55;                                

VANCOUVER      CLOUDY    54  42  64 CALM      30.23S                  
6HR MIN TEMP:  54; 6HR MAX TEMP:  56;                                

SCAPPOOSE, OR  CLOUDY    53  41  63 CALM      30.22F                  
6HR MIN TEMP:  52; 6HR MAX TEMP:  55;                                

PORTLAND, OR   CLOUDY    55  42  61 SW3       30.23F                  
6HR MIN TEMP:  54; 6HR MAX TEMP:  56;                                

$$
 
WAZ021-516-517-261300-
WASHINGTON COAST
  
CITY           SKY/WX    TMP DP  RH WIND       PRES   REMARKS
FORKS          LGT RAIN  49  47  93 CALM      30.20S                  
6HR MIN TEMP:  48; 6HR MAX TEMP:  49; 6HR PCP: TRACE;                

HOQUIAM        CLOUDY    52  48  86 NW5       30.20F FOG              
6HR MIN TEMP:  52; 6HR MAX TEMP:  54;                                

ASTORIA, OR    CLOUDY    54  46  74 W5        30.22F                  
6HR MIN TEMP:  53; 6HR MAX TEMP:  54;                                

$$
 
WAZ019-023-024-040-518-519-261300-
CASCADE MOUNTAINS AND COLUMBIA GORGE
  
CITY           SKY/WX    TMP DP  RH WIND       PRES   REMARKS
STAMPEDE PASS  FOG       37  35  92 VRB7      30.12S VSB 1/4          
6HR MIN TEMP:  37; 6HR MAX TEMP:  42;                                

TROUTDALE, OR  CLOUDY    54  41  61 CALM      30.23S                  
6HR MIN TEMP:  54; 6HR MAX TEMP:  58;                                

THE DALLES, OR MOCLDY    55  43  63 W16G28    30.12S                  
6HR MIN TEMP:  55; 6HR MAX TEMP:  62; 6HR PCP: TRACE;                

$$

WAZ026-027-041>044-520-521-261300-
EAST SLOPES
  
CITY           SKY/WX    TMP DP  RH WIND       PRES   REMARKS
OMAK           MOCLDY    54  39  57 NW10      29.98S                  
6HR MIN TEMP:  53; 6HR MAX TEMP:  64;                                

WENATCHEE      CLEAR     55  37  50 NW7       30.02S                  
6HR MIN TEMP:  55; 6HR MAX TEMP:  62;                                

ELLENSBURG     CLEAR     51  40  65 NW17      30.04S                  
6HR MIN TEMP:  51; 6HR MAX TEMP:  56;                                

YAKIMA         CLEAR     45  36  70 CALM      30.04S                  
6HR MIN TEMP:  44; 6HR MAX TEMP:  63;                                

$$

WAZ028-034-035-261300-
COLUMBIA BASIN
  
CITY           SKY/WX    TMP DP  RH WIND       PRES   REMARKS
EPHRATA        CLEAR     55  39  54 N5        29.98S                  
6HR MIN TEMP:  50; 6HR MAX TEMP:  63;                                

MOSES LAKE     CLEAR     49  41  74 SE6       30.01R                  
6HR MIN TEMP:  48; 6HR MAX TEMP:  61;                                

PASCO          CLEAR     55  45  68 SW5       30.05S                  
6HR MIN TEMP:  54; 6HR MAX TEMP:  65;                                

HERMISTON, OR  CLEAR     54  43  66 SW9       30.06S                  
6HR MIN TEMP:  52; 6HR MAX TEMP:  60;                                

$$

WAZ036>038-261300-
NORTHEAST WASHINGTON
  
CITY           SKY/WX    TMP DP  RH WIND       PRES   REMARKS
SPOKANE GEIGER PTCLDY    49  43  80 S7        30.02S                  
6HR MIN TEMP:  49; 6HR MAX TEMP:  61;                                

SPOKANE FELTS  PTCLDY    53  44  71 S8        30.03S                  
6HR MIN TEMP:  53; 6HR MAX TEMP:  64;                                

FAIRCHILD AFB  PTCLDY    47  44  91 S7        30.01R                  
6HR MIN TEMP:  47; 6HR MAX TEMP:  60;                                

COEURDALENE,ID CLOUDY    54  45  71 SW5       30.01R                  
6HR MIN TEMP:  54; 6HR MAX TEMP:  63;                                

DEER PARK      MOCLDY    51  45  79 MISG      30.02R                  
6HR MIN TEMP:  50; 6HR MAX TEMP:  57;                                

$$

WAZ029>033-261300-
SOUTHEAST WASHINGTON
  
CITY           SKY/WX    TMP DP  RH WIND       PRES   REMARKS
PULLMAN        CLOUDY    50  42  74 W8        30.07S                  
6HR MIN TEMP:  46; 6HR MAX TEMP:  53;                                

LEWISTON, ID   MOCLDY    50  45  83 S3        30.04S                  
6HR MIN TEMP:  49; 6HR MAX TEMP:  62;                                

WALLA WALLA    CLEAR     54  41  61 S12       30.08S                  
6HR MIN TEMP:  54; 6HR MAX TEMP:  60;                                

PENDLETON, OR  CLEAR     49  40  71 S7        30.08F                  
6HR MIN TEMP:  48; 6HR MAX TEMP:  58;                                

$$